Location: Drebach
(50.6670°N, 13.0330°E)
Time: 05:59:25
(UTC+01:00)

ISS - Pass Details

Date: 30 January 2021
Orbit: 417 x 422 km, 51.6° (Epoch: 08 March)

Event Time Altitude Azimuth Distance (km) Brightness Sun altitude
Rises 18:50:57 0° 283° (WNW) 2,375 1.4 -18.1°
Reaches altitude 10° 18:53:04 10° 283° (WNW) 1,509 0.2 -18.4°
Maximum altitude 18:56:27 81° 196° (SSW) 432 -3.8 -18.9°
Enters shadow 18:56:50 67° 127° (SE) 463 -3.8 -19.0°
